Regional Weather Roundup
Issued by NWS

Home | Current Version | Previous Version | Text Only | Print | Product List | Glossary Off
Versions: 1 2 3 4 5 6 7 8 9 10 11 12 13 14 15 16 17 18 19 20 21 22 23 24 25 26 27 28 29 30 31 32 33 34 35 36 37 38 39 40 41 42 43 44 45 46 47 48 49 50

000
ASUS43 KDMX 292106
RWRIA

WEATHER ROUNDUP FOR IOWA
NATIONAL WEATHER SERVICE DES MOINES IA
400 PM CDT SAT APR 29 2017

NOTE: "FAIR" INDICATES FEW OR NO CLOUDS BELOW 12,000 FEET WITH NO
SIGNIFICANT WEATHER AND/OR OBSTRUCTIONS TO VISIBILITY.

* - THESE STATIONS ARE NOT NWS STATIONS...THUS NOT UNDER NWS
QUALITY CONTROL.  THEY ALSO DO NOT REPORT WEATHER SUCH
AS PRECIPITATION OR FOG.

IAZ001>003-012>014-020>022-031>034-043>046-292200-
   NORTHWEST IOWA

CITY           SKY/WX    TMP DP  RH WIND       PRES   REMARKS
CARROLL *      CLOUDY    45  41  87 NE25G32   30.05F
CHEROKEE *     CLOUDY    48  28  45 NE18G29   30.08F
DENISON *      CLOUDY    45  37  76 NE23G37   30.01F
LE MARS *      CLOUDY    50  30  46 NE23G32   30.08F
ORANGE CITY *  PTSUNNY   50  27  40 E17G29    30.09F
SHELDON *      CLOUDY    50  25  37 NE30G36   30.09F
SIOUX CITY     CLOUDY    52  32  46 NE16G31   30.08F
SPENCER        CLOUDY    49  28  44 NE24G33   30.13F
STORM LAKE *     N/A     48  30  49 NE29G36   30.07F
$$

IAZ055>058-069>071-079>083-090>094-292200-
   SOUTHWEST IOWA

CITY           SKY/WX    TMP DP  RH WIND       PRES   REMARKS
ATLANTIC *     CLOUDY    43  39  87 NE28G36   29.93F
AUDUBON *      CLOUDY    43  37  81 NE22G33   29.98F
CLARINDA *     CLOUDY    43  43 100 NE23G43   29.88F FOG
COUNCIL BLFS *   N/A     43  41  93 NE22G38   29.95R
CRESTON *      CLOUDY    41  41 100 NE35G46   29.92F FOG
HARLAN  *      CLOUDY    45  41  87 NE25G44   29.98F
LAMONI         CLOUDY    43  41  93 NE20G30   29.95F
RED OAK *      CLOUDY    43  41  93 NE28G46   29.88F
SHENANDOAH *   CLOUDY    43  41  93 NE25G33   29.89R
$$

IAZ047>049-059>061-072>074-084-292200-
   CENTRAL IOWA

CITY           SKY/WX    TMP DP  RH WIND       PRES   REMARKS
AMES           CLOUDY    44  40  85 NE21G29   30.08F
ANKENY *       CLOUDY    43  39  87 NE16G29   30.07F
BOONE *        CLOUDY    43  41  93 NE22G32   30.05F
CHARITON *     PTSUNNY   43  41  93 NE20G29   29.97F FOG
DES MOINES     CLOUDY    44  39  82 NE20G26   30.05F
GRINNELL*      LGT RAIN  42  38  87 NE21G30   30.09F
KNOXVILLE *    LGT RAIN  43  39  87 NE14G24   30.03S
MARSHALLTOWN   LGT RAIN  43  39  86 NE21G29   30.09F
NEWTON *       CLOUDY    43  39  87 NE21G35   30.06F
PELLA *        LGT RAIN  42  41  93 NE8G18    30.08R
PERRY *        CLOUDY    43  39  83 NE18G24   30.07F
$$

IAZ004>006-015-016-023>025-035-036-292200-
   NORTH CENTRAL IOWA

CITY           SKY/WX    TMP DP  RH WIND       PRES   REMARKS
ALGONA *       CLOUDY    48  30  49 NE24G33   30.12F
CLARION *      CLOUDY    46  34  61 NE28      30.11F
ESTHERVILLE    CLOUDY    48  29  47 NE23      30.15F
FORT DODGE *   CLOUDY    45  32  61 NE16G28   30.10F
MASON CITY     CLOUDY    47  28  47 NE22      30.15F
FOREST CITY *    N/A     48  23  37 NE17G24   30.15F
WEBSTER CITY * CLOUDY    45  37  76 NE17G29   30.08F
IOWA FALLS *   LGT RAIN  44  37  78 NE18G26   30.12F
$$

IAZ007>011-017>019-026>030-037>042-050>054-066-292200-
   NORTHEAST IOWA

CITY           SKY/WX    TMP DP  RH WIND       PRES   REMARKS
CEDAR RAPIDS   LGT RAIN  43  40  89 NE20G28   30.08F
CHARLES CITY * CLOUDY    46  28  49 NE18G26   30.17F
CLINTON *      RAIN      41  39  93 NE21      30.12R
DECORAH *      CLOUDY    45  28  53 NE14G21   30.17F
DUBUQUE        LGT RAIN  41  37  86 NE18G26   30.14S
MONTICELLO *   LGT RAIN  43  37  81 NE17G26   30.11F
OELWEIN *      PTSUNNY   43  39  87 NE15G23   30.14F
WATERLOO       LGT RAIN  43  37  79 NE17G23   30.13F
$$

IAZ064-065-067-068-078-292200-
   EAST CENTRAL IOWA

CITY           SKY/WX    TMP DP  RH WIND       PRES   REMARKS
DAVENPORT      HVY RAIN  41  38  89 NE24G31   30.07F FOG
IOWA CITY      LGT RAIN  44  40  85 NE22      30.08F FOG
MT. PLEASANT * LGT RAIN  41  41 100 NE22G29   30.02S
MUSCATINE *    HVY RAIN  43  41  93 NE25G36   30.05F
QUAD CITIES    RAIN      42  39  89 NE15G26   30.05F FOG
$$

IAZ062-063-075>077-085>089-095>099-292200-
   SOUTHEAST IOWA

CITY           SKY/WX    TMP DP  RH WIND       PRES   REMARKS
BURLINGTON     RAIN      42  32  67 NE23G33   29.99F
FAIRFIELD *    CLOUDY    43  41  93 NE20G28   30.02S FOG
FORT MADISON * RAIN      43  41  93 NE15G22   29.98F
KEOKUK *       RAIN      43  41  93 NE17G23   29.95R
OSKALOOSA *    LGT RAIN  42  41  95 NE20G25   30.04F
CENTERVILLE *  LGT RAIN  41  41 100 NE14G23   29.99F
OTTUMWA        LGT RAIN  44  42  93 NE17G31   30.05R
WASHINGTON *   LGT RAIN  43  43 100 NE22G32   30.05F
$$

ABBREVIATIONS USED IN REMARKS
   TC - TEMPERATURES IN CELSIUS
  WCI - WIND CHILL INDEX
   HX - HEAT INDEX
  VSB - VISIBILITY
$$





USA.gov is the U.S. government's official web portal to all federal, state and local government web resources and services.